Regional Weather Roundup
Issued by NWS

Home | Current Version | Previous Version | Graphics & Text | Print | Product List | Glossary On
Versions: 1 2 3 4 5 6 7 8 9 10 11 12 13 14 15 16 17 18 19 20 21 22 23 24 25 26 27 28 29 30 31 32 33 34 35 36 37 38 39 40 41 42 43 44 45 46 47 48 49 50
000
ASUS43 KMKX 272321
RWRWI

WISCONSIN REGIONAL WEATHER ROUNDUP
NATIONAL WEATHER SERVICE MILWAUKEE/SULLIVAN WI
600 PM CDT MON MAR 27 2017

NOTE: "FAIR" INDICATES FEW OR NO CLOUDS BELOW 12,000 FEET WITH NO
SIGNIFICANT WEATHER AND/OR OBSTRUCTIONS TO VISIBILITY.

WIZ001-002-006>008-014>016-023>028-280000-
NORTHWEST WISCONSIN

CITY           SKY/WX    TMP DP  RH WIND       PRES   REMARKS
SUPERIOR ARPT  SUNNY     46  33  60 NE5       29.99S
ASHLAND        CLOUDY    42  34  73 N5        29.99R
HAYWARD        SUNNY     55  31  39 N10       29.95R
SIREN          SUNNY     57  32  37 NE6       29.95S
CUMBERLAND     CLOUDY    54  30  40 CALM      29.94S
RICE LAKE      CLOUDY    51  36  56 CALM      29.96R
CHETEK         CLOUDY    49  37  61 S3        29.95S
LADYSMITH      MOSUNNY   53  33  46 CALM      29.95S
EAU CLAIRE     CLOUDY    47  37  68 E3        29.96R
MENOMONIE      CLOUDY    49  37  64 E5        29.97R
NEW RICHMOND   CLOUDY    55  35  46 CALM      29.95S
OSCEOLA        SUNNY     57  35  43 NE7       29.97S
$$

WIZ003>005-009-010-017-018-280000-
NORTH CENTRAL WISCONSIN

CITY           SKY/WX    TMP DP  RH WIND       PRES   REMARKS
MANITOWISH WTR SUNNY     47  33  56 NE3       29.94S
ARBOR VITAE    CLOUDY    47  32  57 NE6       29.93S
WOODRUFF       CLOUDY    47  32  57 NE6       29.93S
RHINELANDER    CLOUDY    46  32  58 N7        29.94S
EAGLE RIVER    CLOUDY    43  32  65 NE6       29.94S
LAND O LAKES   CLOUDY    45  32  61 N6        29.96S
PHILLIPS       SUNNY     49  33  53 N5        29.93S
TOMAHAWK       CLOUDY    45  35  67 CALM      29.94F
MEDFORD        CLOUDY    42  38  86 CALM      29.94R
MERRILL        CLOUDY    43  38  83 N6        29.95S
$$

WIZ029-030-035-036-043>047-280000-
CENTRAL WISCONSIN

CITY           SKY/WX    TMP DP  RH WIND       PRES   REMARKS
WAUSAU         CLOUDY    43  37  79 N5        29.93F
MOSINEE        CLOUDY    43  39  87 N3        29.95F
MARSHFIELD     CLOUDY    43  37  79 NE5       29.93S
STEVENS POINT  CLOUDY    41  38  87 N3        29.95F
WAUPACA        CLOUDY    44  42  93 CALM      29.96S
WAUTOMA        CLOUDY    46  42  86 N7        29.95S
WISC RAPIDS    CLOUDY    43  40  89 N7        29.96S
CAMP DOUGLAS   CLOUDY    46  41  81 N3        29.94S
$$

WIZ011>013-019>022-031-037>040-048>050-280000-
NORTHEAST WISCONSIN

CITY           SKY/WX    TMP DP  RH WIND       PRES   REMARKS
ANTIGO         CLOUDY    40  38  91 NE6       29.94F
SHAWANO        CLOUDY    44  39  81 CALM      29.96S
OCONTO         CLOUDY    38  33  81 CALM      29.98R
STURGEON BAY   CLOUDY    39  36  89 N5        29.99R
GREEN BAY      CLOUDY    41  36  82 NE6       29.97S
MANITOWOC      CLOUDY    38  35  89 E5        29.98R WCI  34
APPLETON       CLOUDY    41  41 100 VRB3      29.94S
CLINTONVILLE   CLOUDY    43  37  81 NE3       29.96S
OSHKOSH        CLOUDY    43  38  82 NE8       29.95R
$$

WIZ032>034-041-042-053>061-280000-
SOUTHWEST WISCONSIN

CITY           SKY/WX    TMP DP  RH WIND       PRES   REMARKS
LA CROSSE      CLOUDY    48  41  76 NW7       29.95R
SPARTA         CLOUDY    46  41  81 NW3       29.95S
VIROQUA        CLOUDY    44  44  99 CALM      29.93S
BOSCOBEL       CLOUDY    51  44  77 NW3       29.93S
PRAIRIE DU CHI CLOUDY    47  44  89 NW7       29.93S
PLATTEVILLE    CLOUDY    48  46  92 N6        29.93R
$$

WIZ056-057-062-063-064-067-068-280000-
SOUTH CENTRAL WISCONSIN

CITY           SKY/WX    TMP DP  RH WIND       PRES   REMARKS
REEDSBURG      CLOUDY    46  46  98 N5        29.93S
BARABOO/DELLS  CLOUDY    47  43  84 N3        29.93S
LONE ROCK      CLOUDY    49  44  83 CALM      29.93S
MINERAL POINT  CLOUDY    48  46  93 N5        29.92S
MADISON        CLOUDY    47  43  86 N6        29.92S
MIDDLETON      CLOUDY    48  45  88 N5        29.93S
WATERTOWN      CLOUDY    48  44  88 N7        29.93R
MONROE         CLOUDY    48  43  81 NE7       29.91S
JANESVILLE     CLOUDY    52  45  76 N8        29.91S
$$

WIZ051-052-058>065-066-070>072-280000-
SOUTHEAST WISCONSIN

CITY           SKY/WX    TMP DP  RH WIND       PRES   REMARKS
MILWAUKEE      CLOUDY    42  36  79 E7        29.95R
WAUKESHA       NOT AVBL
MILWAUKEE/TIMM CLOUDY    43  36  75 NE7       29.95R
RACINE         CLOUDY    42  37  82 NE7       29.95S
KENOSHA        CLOUDY    43  39  86 NE8       29.93R
FOND DU LAC    CLOUDY    44  37  76 NE10      29.95R
SHEBOYGAN      CLOUDY    39  34  82 NE9       29.96R WCI  33
WEST BEND      CLOUDY    43  41  93 E7        29.95R
JUNEAU         CLOUDY    46  42  86 CALM      29.94S
$$

LSZ147-162-280000-
LAKE SUPERIOR

STATION/POSITION TIME  TEMP    WIND        PRES    WAVE
                       AIR SEA DIR/SP/G            HT/PER
                 (UTC) (F)     (DEG/KT/KT) (MB)    (FT/S)
DEVILS ISLAND    2300   40     110/  3/  4 1016.4R
PORT WING        2240   37     340/  2/  3 1015.6S
SAXON HARBOR     2240   35     300/  2/  4 1015.6S
$$

LMZ867-665-643>646-280000-
LAKE MICHIGAN

STATION/POSITION TIME  TEMP    WIND        PRES    WAVE
                       AIR SEA DIR/SP/G            HT/PER
                 (UTC) (F)     (DEG/KT/KT) (MB)    (FT/S)
CHAMBERS ISLAND  2240   39     200/  2/  4 1014.6S
NORTHPORT PIER   2240   37        CALM     1014.9R
KEWAUNEE LAKESHO 2254   37      CALM  /  2 1014.5R
SHEBOYGAN LAKESH 2300   36      30/  3/  4 1015.1R
PORT WASHINGTON  2230   39      40/  4/  6 1015.2R
MILWAUKEE LAKESH 2300   38      60/  3/  3   N/A
KENOSHA   LAKESH 2300   38      10/  6/  7 1013.9
$$

TC  - TEMPERATURE IN CELSIUS
VSB - VISIBILITY IN STATUTE MILES
WCI - WIND CHILL INDEX
HX  - HEAT INDEX





USA.gov is the U.S. government's official web portal to all federal, state and local government web resources and services.